This is the latest recevied weather packets stored in our database for station/object N7CW. If no packets are shown the sender has not sent any weather packets the latest 10 day(s).
| Time | Temp. | Humidity | Pressure | Rain* | Wind** | Luminosity | Snow |
|---|---|---|---|---|---|---|---|
| 1777421159 | 18.33° C | 20% | 1018.4 hPa | 0 mm | - | 251 W/m² | - |
| 1777420855 | 18.33° C | 19% | 1018.2 hPa | 0 mm | - | 267 W/m² | - |
| 1777420551 | 18.33° C | 20% | 1018 hPa | 0 mm | - | 281 W/m² | - |
| 1777420247 | 18.33° C | 20% | 1017.9 hPa | 0 mm | - | 298 W/m² | - |
| 1777419943 | 18.89° C | 20% | 1018 hPa | 0 mm | - | 313 W/m² | - |
| 1777419640 | 18.33° C | 20% | 1017.9 hPa | 0 mm | - | 334 W/m² | - |
| 1777419339 | 18.89° C | 20% | 1018 hPa | 0 mm | - | 350 W/m² | - |
| 1777419037 | 18.33° C | 19% | 1017.9 hPa | 0 mm | - | 369 W/m² | - |
| 1777418737 | 18.33° C | 19% | 1017.9 hPa | 0 mm | - | 386 W/m² | - |
| 1777418434 | 18.33° C | 20% | 1018 hPa | 0 mm | - | 401 W/m² | - |
| 1777418130 | 18.89° C | 20% | 1017.8 hPa | 0 mm | - | 418 W/m² | - |
| 1777417827 | 18.89° C | 19% | 1017.9 hPa | 0 mm | - | 433 W/m² | - |
| 1777417527 | 18.33° C | 19% | 1017.9 hPa | 0 mm | - | 448 W/m² | - |
| 1777417224 | 18.89° C | 19% | 1017.8 hPa | 0 mm | - | 464 W/m² | - |
| 1777416919 | 18.89° C | 19% | 1017.7 hPa | 0 mm | - | 479 W/m² | - |
| 1777416615 | 18.33° C | 20% | 1017.9 hPa | 0 mm | - | 496 W/m² | - |
| 1777416311 | 18.89° C | 19% | 1017.9 hPa | 0 mm | - | 509 W/m² | - |
| 1777416010 | 18.89° C | 20% | 1018 hPa | 0 mm | - | 523 W/m² | - |
| 1777415706 | 19.44° C | 20% | 1018 hPa | 0 mm | - | 538 W/m² | - |
| 1777415402 | 18.89° C | 20% | 1017.9 hPa | 0 mm | - | 551 W/m² | - |
| 1777415096 | 18.33° C | 21% | 1018.1 hPa | 0 mm | - | 564 W/m² | - |
| 1777414796 | 19.44° C | 20% | 1018.1 hPa | 0 mm | - | 578 W/m² | - |
| 1777414492 | 18.33° C | 21% | 1018.2 hPa | 0 mm | - | 592 W/m² | - |
| 1777414191 | 18.89° C | 21% | 1018.2 hPa | 0 mm | - | 605 W/m² | - |
| 1777413887 | 19.44° C | 20% | 1018 hPa | 0 mm | - | 617 W/m² | - |
* Rain latest hour (hover to see other rain measurements)
** Current wind speed in m/s (hover to see current wind gust speed)